Latest Weather Observations for Warra

IDT60801

Issued at 1:05 am EST Friday 18 April 2014 (issued every 30 minutes, with the page automatically refreshed every 10 minutes)

About weather observations | Map of weather stations | Latest weather observations for TAS | Other Formats
Station Details ID: 097024 Name: WARRA Lat: -43.06 Lon: 146.70 Height: 495.0 m
Data from the previous 72 hours. | See also: Recent months at Warra
Date/Time
EST
Temp
°C
App
Temp
°C
Dew
Point
Rel
Hum
%
Delta-T
°C
Wind Press
QNH
hPa
Press
MSL
hPa
Rain
since 9 am
mm
Dir
 
Spd
km/h
Gust
km/h
Spd
kts
Gust
kts
18/01:00am 8.6 6.5 6.7 88 0.9 NNW 7 9 4 5 - - 0.0
18/12:30am 9.9 8.2 7.5 85 1.2 N 6 7 3 4 - - 0.0
18/12:00am 9.6 7.6 7.0 84 1.3 NNW 7 9 4 5 - - 0.0
 
Date/Time
EST
Temp
°C
App
Temp
°C
Dew
Point
Rel
Hum
%
Delta-T
°C
Wind Press
QNH
hPa
Press
MSL
hPa
Rain
since 9 am
mm
Dir
 
Spd
km/h
Gust
km/h
Spd
kts
Gust
kts
17/11:30pm 10.8 9.2 7.9 82 1.4 N 6 11 3 6 - - 0.0
17/11:00pm 9.9 8.0 7.7 86 1.1 NNW 7 9 4 5 - - 0.0
17/10:30pm 9.6 7.7 7.4 86 1.1 N 7 11 4 6 - - 0.0
17/10:00pm 9.2 7.2 7.2 87 1.0 NW 7 11 4 6 - - 0.0
17/09:30pm 9.6 7.8 7.9 89 0.8 N 7 11 4 6 - - 0.0
17/09:00pm 8.7 6.9 7.3 91 0.7 N 6 7 3 4 - - 0.0
17/08:30pm 8.5 6.4 6.8 89 0.8 NW 7 9 4 5 - - 0.0
17/08:00pm 9.0 6.7 7.3 89 0.8 NW 9 11 5 6 - - 0.0
17/07:30pm 9.4 7.2 7.7 89 0.8 WNW 9 11 5 6 - - 0.0
17/07:00pm 10.3 8.7 7.9 85 1.2 W 6 9 3 5 - - 0.0
17/06:30pm 10.5 8.4 8.1 85 1.2 W 9 11 5 6 - - 0.0
17/06:00pm 10.7 8.5 7.9 83 1.4 W 9 13 5 7 - - 0.0
17/05:30pm 11.7 9.6 8.2 79 1.8 W 9 11 5 6 - - 0.0
17/05:00pm 14.1 12.5 8.9 71 2.7 WSW 7 9 4 5 - - 0.0
17/04:30pm 15.0 14.5 9.4 69 3.0 SSE 2 6 1 3 - - 0.0
17/04:00pm 15.9 14.8 8.6 62 3.8 E 4 7 2 4 - - 0.0
17/03:30pm 16.1 14.5 8.8 62 3.8 NNE 7 11 4 6 - - 0.0
17/03:00pm 16.3 14.7 8.8 61 3.9 NE 7 9 4 5 - - 0.0
17/02:30pm 16.4 14.9 9.1 62 3.9 NE 7 11 4 6 - - 0.0
17/02:00pm 16.3 14.3 8.5 60 4.1 NE 9 13 5 7 - - 0.0
17/01:30pm 16.0 13.8 7.7 58 4.3 NE 9 13 5 7 - - 0.0
17/01:00pm 15.9 13.7 7.9 59 4.1 NE 9 13 5 7 - - 0.0
17/12:30pm 15.5 13.7 7.8 60 4.0 NE 7 11 4 6 - - 0.0
17/12:00pm 15.6 13.5 8.4 62 3.7 NE 9 15 5 8 - - 0.0
17/11:30am 15.0 13.4 8.9 67 3.2 ENE 7 9 4 5 - - 0.0
17/11:00am 14.8 12.9 7.6 62 3.7 NNE 7 13 4 7 - - 0.0
17/10:30am 14.8 13.3 9.2 69 2.9 NE 7 9 4 5 - - 0.0
17/10:00am 13.5 11.9 8.1 70 2.8 NE 6 9 3 5 - - 0.0
17/09:30am 12.6 11.4 9.4 81 1.7 E 6 9 3 5 - - 0.0
17/09:00am 11.7 11.9 10.6 93 0.6 CALM 0 6 0 3 - - 0.0
17/08:30am 10.4 10.6 10.4 100 0.0 CALM 0 6 0 3 - - 0.0
17/08:00am 9.0 7.6 9.0 100 0.0 N 6 9 3 5 - - 0.0
17/07:30am 6.9 5.4 6.9 100 0.0 WSW 4 7 2 4 - - 0.0
17/07:00am 4.8 3.3 4.8 100 0.0 NNW 2 7 1 4 - - 0.0
17/06:30am 4.5 2.1 4.5 100 0.0 W 6 7 3 4 - - 0.0
17/06:00am 4.5 2.5 4.5 100 0.0 W 4 7 2 4 - - 0.0
17/05:30am 5.5 4.1 5.5 100 0.0 WNW 2 7 1 4 - - 0.0
17/05:00am 4.7 2.2 4.7 100 0.0 W 7 9 4 5 - - 0.0
17/04:30am 5.5 4.5 5.5 100 0.0 CALM 0 0 0 0 - - 0.0
17/04:00am 5.3 4.2 5.3 100 0.0 CALM 0 0 0 0 - - 0.0
17/03:30am 5.2 3.0 5.2 100 0.0 W 6 7 3 4 - - 0.0
17/03:00am 4.7 2.4 4.7 100 0.0 W 6 7 3 4 - - 0.0
17/02:30am 5.6 3.3 5.6 100 0.0 WSW 7 9 4 5 - - 0.0
17/02:00am 5.5 3.3 5.5 100 0.0 WSW 6 7 3 4 - - 0.0
17/01:30am 6.2 5.3 6.2 100 0.0 CALM 0 0 0 0 - - 0.0
17/01:00am 6.0 5.1 6.0 100 0.0 CALM 0 0 0 0 - - 0.0
17/12:30am 5.8 3.5 5.8 100 0.0 W 7 9 4 5 - - 0.0
17/12:00am 6.4 4.2 6.4 100 0.0 W 7 9 4 5 - - 0.0
 
Date/Time
EST
Temp
°C
App
Temp
°C
Dew
Point
Rel
Hum
%
Delta-T
°C
Wind Press
QNH
hPa
Press
MSL
hPa
Rain
since 9 am
mm
Dir
 
Spd
km/h
Gust
km/h
Spd
kts
Gust
kts
16/11:30pm 6.3 4.1 6.3 100 0.0 W 7 9 4 5 - - 0.0
16/11:00pm 6.0 3.8 6.0 100 0.0 W 7 9 4 5 - - 0.0
16/10:30pm 6.6 4.5 6.6 100 0.0 W 7 9 4 5 - - 0.0
16/10:00pm 6.3 3.7 6.3 100 0.0 WSW 9 9 5 5 - - 0.0
16/09:30pm 6.5 4.4 6.5 100 0.0 WSW 7 9 4 5 - - 0.0
16/09:00pm 6.5 4.9 6.5 100 0.0 WSW 4 7 2 4 - - 0.0
16/08:30pm 7.7 7.2 7.7 100 0.0 CALM 0 4 0 2 - - 0.0
16/08:00pm 8.3 7.2 8.3 100 0.0 NNE 4 7 2 4 - - 0.0
16/07:30pm 6.5 5.6 6.2 98 0.1 CALM 0 0 0 0 - - 0.0
16/07:00pm 7.3 5.4 6.7 96 0.3 NNW 6 7 3 4 - - 0.0
16/06:30pm 7.1 6.2 6.0 93 0.5 CALM 0 0 0 0 - - 0.0
16/06:00pm 7.6 6.7 5.9 89 0.8 CALM 0 0 0 0 - - 0.0
16/05:30pm 9.4 8.7 7.0 85 1.2 CALM 0 0 0 0 - - 0.0
16/05:00pm 11.9 11.5 8.4 79 1.8 CALM 0 0 0 0 - - 0.0
16/04:30pm 13.8 12.0 7.3 65 3.3 ENE 6 9 3 5 - - 0.0
16/04:00pm 14.4 12.6 7.9 65 3.3 ENE 7 9 4 5 - - 0.0
16/03:30pm 14.6 12.9 8.3 66 3.2 E 7 11 4 6 - - 0.0
16/03:00pm 14.8 13.1 8.3 65 3.4 ESE 7 9 4 5 - - 0.0
16/02:30pm 14.9 13.3 7.9 63 3.6 ENE 6 11 3 6 - - 0.0
16/02:00pm 15.2 13.3 7.7 61 3.8 ENE 7 11 4 6 - - 0.0
16/01:30pm 14.8 13.0 7.8 63 3.6 NE 7 13 4 7 - - 0.0
16/01:00pm 14.2 12.4 7.9 66 3.2 NE 7 11 4 6 - - 0.0
16/12:30pm 14.7 12.5 7.7 63 3.6 NE 9 15 5 8 - - 0.0
16/12:00pm 13.4 11.5 7.6 68 2.9 NE 7 11 4 6 - - 0.0
16/11:30am 13.6 11.2 7.2 65 3.2 NE 9 13 5 7 - - 0.0
16/11:00am 13.0 10.9 8.1 72 2.5 NNE 9 13 5 7 - - 0.0
16/10:30am 12.6 9.9 7.3 70 2.6 NNE 11 15 6 8 - - 0.0
16/10:00am 11.8 9.6 7.7 76 2.0 NNE 9 11 5 6 - - 0.0
16/09:30am 10.5 9.0 8.3 86 1.1 E 6 7 3 4 - - 0.0
16/09:00am 9.2 9.0 9.1 99 0.1 CALM 0 0 0 0 - - 0.0
16/08:30am 8.7 8.0 8.7 100 0.0 NE 2 6 1 3 - - 0.0
16/08:00am 7.8 7.3 7.8 100 0.0 CALM 0 0 0 0 - - 0.0
16/07:30am 5.4 3.6 5.4 100 0.0 NW 4 7 2 4 - - 0.0
16/07:00am 2.9 0.2 2.9 100 0.0 WSW 6 9 3 5 - - 0.0
16/06:30am 3.2 1.7 3.2 100 0.0 CALM 0 0 0 0 - - 0.0
16/06:00am 2.9 0.6 2.9 100 0.0 N 4 6 2 3 - - 0.0
16/05:30am 2.8 0.5 2.8 100 0.0 WSW 4 6 2 3 - - 0.0
16/05:00am 2.5 0.9 2.5 100 0.0 CALM 0 0 0 0 - - 0.0
16/04:30am 2.6 -0.1 2.6 100 0.0 WSW 6 7 3 4 - - 0.0
16/04:00am 2.7 0.8 2.7 100 0.0 W 2 9 1 5 - - 0.0
16/03:30am 2.7 1.1 2.7 100 0.0 CALM 0 0 0 0 - - 0.0
16/03:00am 2.6 1.0 2.6 100 0.0 CALM 0 0 0 0 - - 0.0
16/02:30am 2.5 0.9 2.5 100 0.0 CALM 0 0 0 0 - - 0.0
16/02:00am 3.0 1.5 3.0 100 0.0 CALM 0 0 0 0 - - 0.0
16/01:30am 2.9 1.4 2.9 100 0.0 CALM 0 0 0 0 - - 0.0
16/01:00am 2.9 1.4 2.9 100 0.0 CALM 0 0 0 0 - - 0.0
16/12:30am 2.9 0.6 2.9 100 0.0 WNW 4 9 2 5 - - 0.0
16/12:00am 3.2 0.6 3.2 100 0.0 WNW 6 7 3 4 - - 0.0
 
Date/Time
EST
Temp
°C
App
Temp
°C
Dew
Point
Rel
Hum
%
Delta-T
°C
Wind Press
QNH
hPa
Press
MSL
hPa
Rain
since 9 am
mm
Dir
 
Spd
km/h
Gust
km/h
Spd
kts
Gust
kts
15/11:30pm 3.4 1.6 3.4 100 0.0 W 2 7 1 4 - - 0.0
15/11:00pm 3.7 2.3 3.7 100 0.0 CALM 0 0 0 0 - - 0.0
15/10:30pm 3.4 0.8 3.4 100 0.0 NNW 6 7 3 4 - - 0.0
15/10:00pm 3.6 1.1 3.5 99 0.0 NNW 6 7 3 4 - - 0.0
15/09:30pm 4.5 2.1 4.4 99 0.0 NNE 6 7 3 4 - - 0.0
15/09:00pm 5.4 3.1 5.0 97 0.2 NNE 6 7 3 4 - - 0.0
15/08:30pm 6.3 3.9 5.1 92 0.5 ENE 7 11 4 6 - - 0.0
15/08:00pm 6.6 4.2 5.2 91 0.6 NNE 7 11 4 6 - - 0.0
15/07:30pm 6.4 4.1 5.0 91 0.6 ENE 6 9 3 5 - - 0.0
15/07:00pm 7.1 4.9 6.0 93 0.5 NE 7 9 4 5 - - 0.0
15/06:30pm 7.5 5.2 5.8 89 0.8 NE 7 11 4 6 - - 0.0
15/06:00pm 8.4 6.2 6.2 86 1.0 ENE 7 9 4 5 - - 0.0
15/05:30pm 9.0 6.8 6.4 84 1.2 ENE 7 11 4 6 - - 0.0
15/05:00pm 9.7 7.5 6.4 80 1.6 NE 7 11 4 6 - - 0.0
15/04:30pm 10.6 8.6 6.9 78 1.8 NE 7 11 4 6 - - 0.0
15/04:00pm 10.9 9.0 6.8 76 2.0 SE 6 9 3 5 - - 0.0
15/03:30pm 11.0 8.9 6.6 74 2.1 E 7 11 4 6 - - 0.0
15/03:00pm 10.6 8.5 6.6 76 1.9 ESE 7 11 4 6 - - 0.0
15/02:30pm 11.1 8.5 6.3 72 2.3 E 9 15 5 8 - - 0.0
15/02:00pm 11.3 8.8 6.6 73 2.3 ESE 9 15 5 8 - - 0.0
15/01:30pm 11.1 9.1 7.0 76 2.0 E 7 11 4 6 - - 0.0
15/01:00pm 10.0 8.3 7.4 84 1.3 E 6 9 3 5 - - 0.0
15/12:30pm 9.7 7.9 7.8 88 0.9 E 7 13 4 7 - - 0.0
15/12:00pm 9.5 7.4 8.3 92 0.6 E 9 15 5 8 - - 0.0
15/11:30am 9.2 7.4 7.8 91 0.7 ENE 7 13 4 7 - - 0.0
15/11:00am 9.1 7.2 7.5 90 0.8 ENE 7 11 4 6 - - 0.0
15/10:30am 9.5 7.3 7.9 90 0.8 ESE 9 11 5 6 - - 0.0
15/10:00am 9.2 7.4 7.8 91 0.7 ENE 7 13 4 7 - - 0.0
15/09:30am 8.8 7.5 7.7 93 0.5 E 4 9 2 5 - - 0.0
15/09:00am 8.1 6.9 8.1 100 0.0 NNE 4 7 2 4 - - 4.2
15/08:30am 7.7 7.2 7.7 100 0.0 CALM 0 0 0 0 - - 4.2
15/08:00am 7.3 6.7 7.3 100 0.0 CALM 0 4 0 2 - - 4.2
15/07:30am 7.1 6.0 7.1 100 0.0 NNE 2 6 1 3 - - 4.2
15/07:00am 6.9 5.4 6.9 100 0.0 NE 4 7 2 4 - - 4.2
15/06:30am 6.9 5.4 6.9 100 0.0 ENE 4 6 2 3 - - 4.2
15/06:00am 7.1 6.4 7.1 100 0.0 CALM 0 0 0 0 - - 4.0
15/05:30am 7.2 6.2 7.2 100 0.0 E 2 7 1 4 - - 4.0
15/05:00am 7.2 5.8 7.2 100 0.0 NE 4 9 2 5 - - 4.0
15/04:30am 7.3 5.3 7.3 100 0.0 NNE 7 7 4 4 - - 4.0
15/04:00am 7.4 5.7 7.4 100 0.0 NNE 6 9 3 5 - - 4.0
15/03:30am 7.5 6.9 7.5 100 0.0 CALM 0 0 0 0 - - 4.0
15/03:00am 7.5 6.2 7.5 100 0.0 ENE 4 11 2 6 - - 4.0
15/02:30am 7.5 6.9 7.5 100 0.0 CALM 0 0 0 0 - - 4.0
15/02:00am 7.4 6.4 7.4 100 0.0 ESE 2 7 1 4 - - 4.0
15/01:30am 7.5 6.5 7.5 100 0.0 ESE 2 7 1 4 - - 4.0

Other Formats:

Comma delimited format used in spreadsheet applications
http://www.bom.gov.au/fwo/IDT60801/IDT60801.95962.axf

JavaScript Object Notation format (JSON) in row-major order
http://www.bom.gov.au/fwo/IDT60801/IDT60801.95962.json